www.pogodaiklimat.ru

Погода и климат >> Архив погоды >> Индия >> Орисса >> Самбалпур


ПОГОДА в Самбалпуре

  • Прогноз погоды в Самбалпуре
  • Монитор погоды в Самбалпуре

АРХИВ ПОГОДЫ в Самбалпуре

Время (UTC), дата Ветер
(напр.,м/с)
 
Видим.   Явления Облачность Т
(С)
Тd
(С)
f
(%)
Тe
(С)
Тes
(С)
Комфортность P
(гПа)
Po
(гПа)
Тmin
(С)
Tmax
(С)
R
(мм)
R24
(мм)
S
(см)
06 17.07 штиль 0 4000 м 3/3 600 м
[Sc]
+34.6 +26.0 61 +50 +71 опасность
перегрева
1001.8 985.5
09 17.07 ЮЗ 1 4000 м 8/5 600 м
[Sc diur, vesp Ac trans]
+35.0 +23.2 51 +46 +51 опасность
перегрева
1000.0 983.7
12 17.07 штиль 0 4000 м 8/5 600 м
[Sc diur, vesp Ac trans]
+31.4 +23.6 63 +42 +43 опасность
перегрева
999.4 982.9 +37.4
00 18.07 штиль 0 4000 м 4/1 600 м
[Sc Ac trans]
+27.4 +24.2 83 +38 +38 очень
душно
1001.9 985.2
03 18.07 штиль 0 4000 м 3/3 600 м
[Sc]
+29.4 +24.8 76 +42 +51 опасность
перегрева
1001.9 985.3 +25.8
06 18.07 штиль 0 4000 м 3/3 600 м
[Sc]
+33.4 +25.9 65 +49 +70 опасность
перегрева
1001.8 985.4
09 18.07 штиль 0 4000 м 4/4 600 м
[Sc diur, vesp]
+36.4 +26.2 56 +52 +64 опасность
перегрева
998.1 981.9
12 18.07 штиль 0 4000 м {гроза, дождь} 9/5 600 м
[Sc diur, vesp Ac trans]
+27.2 +24.6 86 +39 +39 очень
душно
999.2 982.5 +36.7 2
00 19.07 штиль 0 2000 м мгла 3/3 600 м
[Sc]
+26.6 +25.2 92 +38 +38 очень
душно
1001.2 984.4 3
03 19.07 З 1 4000 м 4/4 600 м
[Sc]
+30.2 +25.1 74 +44 +51 опасность
перегрева
1001.8 985.2 +25.4 3
06 19.07 штиль 0 4000 м 3/3 600 м
[Sc]
+33.4 +24.9 61 +47 +68 опасность
перегрева
1001.5 985.1
09 19.07 штиль 0 4000 м 4/3 600 м
[Sc diur, vesp Ac trans]
+36.0 +25.4 55 +51 +63 опасность
перегрева
998.5 982.3
12 19.07 СВ 1 4000 м гроза без осадков 9/6 600 м
[Cb cap Ac trans]
+28.8 +26.3 86 +44 +44 опасность
перегрева
998.7 982.1 +36.2 1
00 20.07 штиль 0 4000 м 4/4 600 м
[Sc]
+27.2 +24.9 87 +39 +39 очень
душно
1002.1 985.4 1
03 20.07 В 1 4000 м 5/5 600 м
[Sc diur, vesp]
+30.0 +24.6 73 +43 +49 опасность
перегрева
1003.2 986.6 +25.8 1
06 20.07 штиль 0 4000 м 6/4 600 м
[Sc diur, vesp Ac trans]
+32.6 +25.3 66 +47 +61 опасность
перегрева
1002.8 986.3
09 20.07 штиль 0 4000 м 8/5 600 м
[Sc diur, vesp Ac trans Ci fib]
+31.8 +26.5 74 +49 +55 опасность
перегрева
1001.8 985.3
12 20.07 штиль 0 4000 м 6/5 600 м
[Sc diur, vesp Ac trans]
+32.2 +25.1 66 +46 +46 опасность
перегрева
999.9 983.5 +32.9
00 21.07 штиль 0 4000 м 9/8 600 м
[Sc diur, vesp Ac trans]
+27.4 +25.4 89 +40 +40 очень
душно
1003.1 986.4
03 21.07 штиль 0 4000 м 5/4 600 м
[Sc Ac trans]
+30.6 +25.5 74 +45 +52 опасность
перегрева
1004.4 987.8 +26.0
06 21.07 штиль 0 4000 м 4/4 600 м
[Sc]
+34.2 +24.9 58 +47 +65 опасность
перегрева
1003.9 987.5
09 21.07 штиль 0 4000 м 4/3 600 м
[Sc Ac trans]
+36.4 +24.6 51 +49 +61 опасность
перегрева
1001.6 985.4
12 21.07 штиль 0 4000 м 3/3 600 м
[Sc]
+34.8 +25.6 59 +50 +51 опасность
перегрева
999.7 983.4 +36.8
00 22.07 штиль 0 4000 м 3/3 600 м
[Sc]
+28.2 +25.4 85 +41 +41 опасность
перегрева
1002.6 985.9
03 22.07 штиль 0 4000 м 4/4 600 м
[Sc]
+31.4 +25.5 71 +46 +54 опасность
перегрева
1004.0 987.5 +26.9
06 22.07 штиль 0 4000 м 5/4 600 м
[Sc diur, vesp Ac trans]
+34.8 +25.9 60 +50 +66 опасность
перегрева
1003.0 986.7
09 22.07 штиль 0 4000 м 4/4 600 м
[Sc]
+37.0 +25.9 53 +52 +64 опасность
перегрева
1000.1 983.9
12 22.07 З 1 4000 м гроза без осадков 9/6 600 м
[Cb cap Ac trans]
+34.8 +25.0 57 +48 +49 опасность
перегрева
999.8 983.5 +37.3
00 23.07 штиль 0 4000 м 3/3 600 м
[Sc]
+27.0 +25.0 89 +39 +39 очень
душно
1002.8 986.0 2
03 23.07 штиль 0 4000 м 5/4 600 м
[Sc diur, vesp Ac trans]
+30.6 +25.8 76 +46 +53 опасность
перегрева
1003.5 986.9 +25.5 2
06 23.07 штиль 0 4000 м 5/4 600 м
[Sc diur, vesp Ac trans]
+33.8 +26.3 65 +50 +66 опасность
перегрева
1002.6 986.2
09 23.07 штиль 0 4000 м 6/5 600 м
[Sc diur, vesp Ac trans]
+35.4 +26.0 58 +51 +59 опасность
перегрева
1000.1 983.8
12 23.07 штиль 0 4000 м 5/3 600 м
[Sc diur, vesp Ac trans]
+34.8 +26.5 62 +51 +52 опасность
перегрева
998.6 982.3 +35.7
00 24.07 штиль 0 4000 м 3/3 600 м
[Sc]
+27.6 +25.0 86 +40 +40 очень
душно
1001.9 985.2
03 24.07 ЮЗ 1 4000 м 5/5 600 м
[Sc diur, vesp]
+30.2 +25.8 77 +45 +51 опасность
перегрева
1003.1 986.5 +26.2

 

Местоположение метеостанции Самбалпур (Орисса, Индия): широта 21.47 долгота 83.97 высота над уровнем моря 148 м.

В архиве по умолчанию представлена погода в Самбалпуре за последнюю неделю. Архивные данные за месяц целиком и за предыдущие месяцы, начиная с января 2011 года, Вы можете получить, выбрав интересующий диапазон дат из раскрывающегося списка и нажав кнопку "Ввод!".


*Определитесь, кто Вы:
робот инопланетянин человек

Внимание! Время в таблицах - всемирное. Для получения местного времени необходимо прибавить поправку, которая равна 5.5 ч.

Смотрите также архив погоды в соседних городах и на ближайших метеорологических станциях:

Погода в Харакаде (Орисса, Индия) (12 км)
Погода в Джхарсугуде (Орисса, Индия) (51 км)
Погода в Сундаргархе (Орисса, Индия) (73 км)
Погода в Пхулбани (Орисса, Индия) (114 км)
Погода в Ангуле (Орисса, Индия) (137 км)
Погода в Титилагаре (Орисса, Индия) (148 км)
Погода в Кендуджхаре (Орисса, Индия) (161 км)
Погода в Бхаванипатне (Орисса, Индия) (191 км)
Погода в Биласпуре (Чхаттисгарх, Индия) (199 км)
Погода в Амбикапуре (Чхаттисгарх, Индия) (203 км)

Пояснения к столбцам:

Ветер - указаны скорость ветра в м/с - средняя за 10 мин, порывы в срок и между сроками (в фигурных скобках) и направление, откуда дует ветер: С - северный, СВ - северо-восточный, В - восточный, ЮВ - юго-восточный, Ю - южный, ЮЗ - юго-западный, З - западный, СЗ - северо-западный.
Видимость - горизонтальная дальность видимости в метрах или километрах. При видимости от 1 до 10 км при отсутствии осадков обычно наблюдается дымка, при ухудшении видимости до 1 км и менее - туман. В сухую погоду видимость может ухудшаться дымом, пылью или мглою.
Явления - указаны атмосферные явления, наблюдавшиеся в срок или в последний час перед сроком; фигурными скобками обозначены явления, наблюдавшиеся между сроками (за 1-3 часа до срока); квадратными скобками обозначены град или гололедные отложения с указанием их диаметра в мм.
Облачность - указаны через наклонную черту общая и нижняя облачность в баллах и высота нижней границы облаков в метрах; квадратными скобками обозначены формы облаков: Ci - перистые, Cs - перисто-слоистые, Cc - перисто-кучевые, Ac - высококучевые, As - высокослоистые, Sc - слоисто-кучевые, Ns - слоисто-дождевые, Cu - кучевые, Cb - кучево-дождевые. Подробнее классификацию облаков см. в Атласе облаков (PDF).
T - Температура воздуха - температура, измеренная на высоте 2 м над землей.
Td - Температура точки росы - температура, при понижении до которой содержащийся в воздухе водяной пар достигнет насыщения.
f - Относительная влажность воздуха - влажноcть воздуха, измеренная на высоте 2 м над землей.
Te - Эффективная температура - температура, которую ощущает одетый по сезону человек в тени. Характеристика душности погоды. При расчете учитывается влияние влажности воздуха и скорости ветра на теплоощущения человека.
Tes - Эффективная температура на солнце - температура, которую ощущает человек, с поправкой на солнечный нагрев. Характеристика знойности погоды. Зависит от высоты солнца над горизонтом, облачности и скорости ветра. Ночью, в пасмурную погоду, а также при ветре 12 м/с и более поправка равна нулю.
P - Атмосферное давление - приведенное к уровню моря атмосферное давление.
Po - Атмосферное давление - измеренное на уровне метеостанции атмосферное давление.
Tmin - Минимальная температура - минимум температуры воздуха на высоте 2 м над землей.
Tmax - Максимальная температура - максимум температуры воздуха на высоте 2 м над землей.
R - Количество осадков - Количество выпавших осадков за период времени, мм. При наведении курсора мыши на число - период времени, за который выпало указанное количество осадков.
R24 - Количество осадков - Количество выпавших осадков за 24 часа, мм.
S - Снежный покров - Высота снежного покрова, см. При наведении курсора мыши на число - состояние снежного покрова и степень покрытия местности в баллах.